Regional Weather Roundup
Issued by NWS

Home | Current Version | Previous Version | Graphics & Text | Print | Product List | Glossary On
Versions: 1 2 3 4 5 6 7 8 9 10 11 12 13 14 15 16 17 18 19 20 21 22 23 24 25 26 27 28 29 30 31 32 33 34 35 36 37 38 39 40 41 42 43 44 45 46 47 48 49 50
511
ASUS45 KCYS 160610
RWRWY

WYOMING REGIONAL WEATHER ROUNDUP
NATIONAL WEATHER SERVICE CHEYENNE WY
1100 PM MST FRI DEC 15 2017

NOTE:  "FAIR" INDICATES FEW OR NO CLOUDS BELOW 12,000 FEET
WITH NO SIGNIFICANT WEATHER AND/OR OBSTRUCTIONS TO VISIBILITY.

WYZ001-160700-
YELLOWSTONE NATIONAL PARK

CITY           SKY/WX    TMP DP  RH WIND       PRES   REMARKS
LK YELLOWSTONE   N/A     17  15  92 CALM      29.93F
6HR MIN TEMP:  17; 6HR MAX TEMP:  23;

W YELLOWSTONE  NOT AVBL

$$
WYZ002>013-054>058-071-098>099-160700-
NORTHERN WYOMING

CITY           SKY/WX    TMP DP  RH WIND       PRES   REMARKS
JACKSON        FAIR      22  18  85 NE5       29.93S WCI  16
CODY           FAIR      38  15  39 S7        29.81R WCI  33
GREYBULL       FAIR      29  17  61 CALM      29.78S
6HR MIN TEMP:  28; 6HR MAX TEMP:  36;

WORLAND        FAIR      26  22  84 CALM      29.78R
6HR MIN TEMP:  26; 6HR MAX TEMP:  32;

SHERIDAN       FAIR      33  25  72 SW5       29.77R WCI  29
6HR MIN TEMP:  32; 6HR MAX TEMP:  40;

BUFFALO        FAIR      46  12  25 NW9       29.75R
6HR MIN TEMP:  39; 6HR MAX TEMP:  50;

GILLETTE       FAIR      32  21  64 N8        29.73R WCI  25
6HR MIN TEMP:  32; 6HR MAX TEMP:  44;

HULETT         FAIR      36  19  51 CALM      29.74R
NEWCASTLE      FAIR      30  21  69 CALM      29.75S

$$
WYZ014>020-022>026-101>103-160700-
CENTRAL WYOMING

CITY           SKY/WX    TMP DP  RH WIND       PRES   REMARKS
BIG PINEY      FAIR      19   9  65 N6        29.93F WCI  11
6HR MIN TEMP:  16; 6HR MAX TEMP:  34;

PINEDALE       FAIR      19  12  73 CALM      29.93S
DUBOIS         FAIR      32   5  32 NW21G26   29.82S WCI  20
LANDER         FAIR      35  17  47 S7        29.77F WCI  29
6HR MIN TEMP:  25; 6HR MAX TEMP:  37;

RIVERTON       FAIR      28  18  66 SW10      29.79S WCI  19
6HR MIN TEMP:  23; 6HR MAX TEMP:  30;

CASPER         FAIR      40  13  33 SW23      29.79S WCI  30
6HR MIN TEMP:  40; 6HR MAX TEMP:  42;

DOUGLAS        FAIR      43  13  29 W13G20    29.73F
6HR MIN TEMP:  42; 6HR MAX TEMP:  46;


$$
WYZ021-027>030-104>119-160700-
SOUTHERN WYOMING

CITY           SKY/WX    TMP DP  RH WIND       PRES   REMARKS
EVANSTON       CLOUDY    35   5  28 S6        29.94F WCI  30
6HR MIN TEMP:  32; 6HR MAX TEMP:  37;

FORT BRIDGER   MOCLDY    34   5  29 SW9       29.96F WCI  27
ROCK SPRINGS   FAIR      29   9  43 SW8       29.93F WCI  21
6HR MIN TEMP:  28; 6HR MAX TEMP:  40;

DIXON          FAIR      16   8  72 E3        30.03F
RAWLINS        FAIR      34  12  40 SW10G20   29.90F WCI  26
6HR MIN TEMP:  33; 6HR MAX TEMP:  37;

SARATOGA       FAIR      28  10  47 CALM      29.94F
LARAMIE        FAIR      32  11  41 SW24      29.85F WCI  19
6HR MIN TEMP:  32; 6HR MAX TEMP:  38;

CHEYENNE       FAIR      45   7  21 W23       29.82S
6HR MIN TEMP:  45; 6HR MAX TEMP:  49;

TORRINGTON     FAIR      46   6  19 S5        29.75R
6HR MIN TEMP:  43; 6HR MAX TEMP:  52;

PINE BLUFFS    FAIR      37   5  25 MISG      29.80R

$$




USA.gov is the U.S. government's official web portal to all federal, state and local government web resources and services.